Tracking 25710 objects as of 5-Jul-2022
HD Live streaming from Space Station
objects crossing your sky now

STARLINK-2462

Track STARLINK-2462 now!
10-day predictions
STARLINK-2462 is classified as:


NORAD ID: 48121
Int'l Code: 2021-027AF
Perigee: 553.4 km
Apogee: 555.3 km
Inclination: 53.1 °
Period: 95.6 minutes
Semi major axis: 6925 km
RCS: Unknown
Launch date: April 7, 2021
Source: United States (US)
Launch site: AIR FORCE EASTERN TEST RANGE (AFETR)
aabbcc
Your satellite tracking list
Your tracking list is empty




NASA's NSSDC Master Catalog

Two Line Element Set (TLE):
1 48121U 21027AF  22185.91884403 -.00002582  00000-0 -15449-3 0  9998
2 48121  53.0550  74.0436 0001422  80.6999 279.4151 15.06396342 70016
Source of the keplerian elements: AFSPC